Location: Casteau
(50.5142°N, 4.0161°E)
Time: 01:43:34
(UTC+00:00)

Transit 2A - Pass Details

Date: 06 August 2021
Orbit: 594 x 964 km, 66.7° (Epoch: 27 September)

Event Time Altitude Azimuth Distance (km) Brightness Sun altitude
Rises 05:47:56 0° 231° (SW) 2,862 8.4 12.5°
Reaches altitude 10° 05:50:10 10° 237° (WSW) 1,988 7.7 12.8°
Maximum altitude 05:54:31 52° 314° (NW) 815 6.1 13.5°
Drops below altitude 10° 05:59:18 10° 31° (NNE) 2,174 9.1 14.2°
Sets 06:01:50 0° 37° (NE) 3,158 9.9 14.6°
